Mountain Home, Arkansas, United States (72653)
Lat: 36.34N, Lon: 92.39W
Wx Zone: ARZ005
Local Info
Past Weather Observations for Monday, May 23, 2016

NOTE: This archive is for the closest National Weather Service station to Mountain Home. Information may differ from the station used for current weather conditions.

Click here for Long-term Archive

Time Weather Temperature Dewpoint Humidity Pressure Winds Precip Visibility
23:53
Clear
63°F / 17°C 59°F / 15°C 88% 29.95 in
(1014 mb)
E 3.5 mph
(E 6 kph)
- 10SM
22:53
Partly Cloudy
63°F / 17°C 59°F / 15°C 88% 29.95 in
(1014 mb)
SSE 4.6 mph
(SSE 7 kph)
- 10SM
21:53
Clear
63°F / 17°C 61°F / 16°C 94% 29.95 in
(1014 mb)
Calm - 10SM
20:53
Clear
63°F / 17°C 61°F / 16°C 94% 29.95 in
(1014 mb)
Calm - 9SM
19:53
Partly Cloudy
64°F / 18°C 61°F / 16°C 88% 29.92 in
(1013 mb)
Calm - 10SM
18:53
Partly Cloudy
68°F / 20°C 61°F / 16°C 78% 29.95 in
(1014 mb)
S 4.6 mph
(S 7 kph)
0.00 in
(0.00 mm)
10SM
17:53
Overcast
68°F / 20°C 63°F / 17°C 83% 29.95 in
(1014 mb)
SE 4.6 mph
(SE 7 kph)
0.02 in
(0.51 mm)
9SM
16:53
Overcast
Light Rain
73°F / 23°C 61°F / 16°C 65% 29.95 in
(1014 mb)
SSW 3.5 mph
(SSW 6 kph)
0.00 in
(0.00 mm)
8SM
15:53
Partly Cloudy
77°F / 25°C 57°F / 14°C 51% 29.92 in
(1013 mb)
S 4.6 mph
(S 7 kph)
0.00 in
(0.00 mm)
10SM
14:53
Clear
79°F / 26°C 57°F / 14°C 48% 29.92 in
(1013 mb)
S 6.9 mph
(S 11 kph)
- 10SM
13:53
Clear
81°F / 27°C 55°F / 13°C 42% 29.92 in
(1013 mb)
S 11.5 mph
(S 19 kph)
- 10SM
12:53
Clear
79°F / 26°C 55°F / 13°C 45% 29.95 in
(1014 mb)
Variable 5.8 mph
(Variable 9 kph)
- 10SM
11:53
Clear
77°F / 25°C 55°F / 13°C 47% 29.98 in
(1015 mb)
S 11.5 mph
(S 19 kph)
- 10SM
10:53
Clear
75°F / 24°C 54°F / 12°C 47% 30.01 in
(1016 mb)
SSE 10.4 mph
(SSE 17 kph)
- 10SM
09:53
Clear
73°F / 23°C 55°F / 13°C 53% 30.01 in
(1016 mb)
S 8.1 mph
(S 13 kph)
- 10SM
08:53
Clear
70°F / 21°C 54°F / 12°C 57% 30.01 in
(1016 mb)
SSE 6.9 mph
(SSE 11 kph)
- 10SM
07:53
Clear
66°F / 19°C 52°F / 11°C 60% 30.01 in
(1016 mb)
SSE 5.8 mph
(SSE 9 kph)
- 10SM
06:53
Clear
63°F / 17°C 54°F / 12°C 73% 30.01 in
(1016 mb)
E 4.6 mph
(E 7 kph)
- 10SM
05:53
Clear
55°F / 13°C 54°F / 12°C 94% 30.01 in
(1016 mb)
E 3.5 mph
(E 6 kph)
- 9SM
04:53
Clear
55°F / 13°C 50°F / 10°C 82% 29.98 in
(1015 mb)
E 3.5 mph
(E 6 kph)
- 10SM
03:53
Clear
54°F / 12°C 50°F / 10°C 88% 29.98 in
(1015 mb)
Calm - 10SM
02:53
Clear
55°F / 13°C 48°F / 9°C 77% 30.01 in
(1016 mb)
Calm - 10SM
01:53
Clear
57°F / 14°C 48°F / 9°C 72% 30.01 in
(1016 mb)
SE 3.5 mph
(SE 6 kph)
- 10SM
00:53
Clear
57°F / 14°C 50°F / 10°C 77% 30.01 in
(1016 mb)
Calm - 10SM
Time Weather Temperature Dewpoint Humidity Pressure Winds Precip Visibility


Weather for websites

WeatherForYou.com, LLC is not responsible for any damages or problems caused by this service. Current weather conditions are obtained from the closest station including government and personal stations which may have varying degrees of accuracy. Weather forecasts are derived from the NOAA NDFD. Like all things, this site belongs to Jesus Christ... He just trusts us to maintain it. If you have any questions or comments email webmaster@weatherforyou.com

Copyright © 2016, WeatherForYou.com LLC. All rights reserved.